Content
SEND FEEDBACK

Daily
Averages
Monthly
Summary
United States of America

MOOSE LAKE, MINNESOTA


Home > North America > United States > Minnesota
Elevation: 1056 feet     Latitude: 46 27N     Longitude: 092 45W

WEATHER
 
SELECT A DAY
Number of Records: 363,299;   Date Range: 9/19/99 - 12/16/14
 
SHARE

PRINT THIS DATA

[ ← Previous Day ]
WEATHER ALMANAC - JANUARY 31, 2013
[ Next Day → ]
[ °C ]   °F
Weather ElementAverageHighLow
Temperature1.5 °F8.6 °F (12:32 am)-11.2 °F (11:32 pm)
Dewpoint-12.8 °F-4 °F (1:12 am)-25.6 °F (11:12 pm)
Humidity51.7 %66 % (2:52 am)43 % (11:32 am)
Barometer29.91 in30.16 in (11:52 pm)29.67 in (12:32 am)
Wind Speed7.9 mph16.1 mph (2:31 pm)
Wind Gust21.9 mph (4:32 pm)
Weather ElementAverage
Visibility8.5 mi
Wind DirectionWSW (247.9 °)

Weather ElementTotal
Precipitation---
Heating Degree Days66.3 (Base 65)
Averaged from 71 records on January 31, 2013
WEATHER CONDITIONS BREAKOUT
WIND DIRECTION BREAKOUT
WEATHER BY HOUR - JANUARY 31, 2013
[ °C ]   °F
Local TimeTemperatureDewpointHumidityBarometerVisibilityWind DirectionWind SpeedGust SpeedPrecipitationEventsConditions
12:32 AM8.6 °F-5.8 °F52 %29.67 in10.0 miCalmOvercast
12:52 AM8.6 °F-5.8 °F52 %29.67 in10.0 miCalmOvercast
1:12 AM8.6 °F-4.0 °F57 %29.67 in10.0 miNNW (340°)6.9 mphOvercast
1:31 AM8.6 °F-4.0 °F57 %29.68 in10.0 miNW (320°)9.2 mphOvercast
1:51 AM6.8 °F-5.8 °F56 %29.68 in10.0 miCalmOvercast
2:12 AM6.8 °F-4.0 °F61 %29.69 in7.0 miCalmSnowLight Snow
2:32 AM6.8 °F-4.0 °F61 %29.69 in4.0 miCalmSnowLight Snow
2:52 AM5.0 °F-4.0 °F66 %29.70 in7.0 miCalmOvercast
3:12 AM5.0 °F-5.8 °F61 %29.70 in5.0 miNW (310°)10.4 mph16.1 mphHaze
3:31 AM5.0 °F-5.8 °F61 %29.71 in5.0 miNW (310°)9.2 mphHaze
3:51 AM5.0 °F-5.8 °F61 %29.71 in7.0 miNW (310°)9.2 mphOvercast
4:12 AM5.0 °F-7.6 °F56 %29.72 in10.0 miNW (310°)11.5 mph16.1 mphOvercast
4:32 AM3.2 °F-7.6 °F61 %29.72 in10.0 miWNW (300°)9.2 mph16.1 mphOvercast
4:52 AM3.2 °F-7.6 °F61 %29.73 in7.0 miNW (320°)11.5 mph16.1 mphOvercast
5:12 AM3.2 °F-7.6 °F61 %29.73 in7.0 miNW (320°)6.9 mph18.4 mphOvercast
5:32 AM3.2 °F-7.6 °F61 %29.74 in7.0 miNW (310°)10.4 mphOvercast
5:51 AM3.2 °F-7.6 °F61 %29.74 in4.0 miCalmHaze
6:12 AM1.4 °F-7.6 °F66 %29.76 in4.0 miNW (310°)10.4 mphHaze
6:32 AM1.4 °F-9.4 °F61 %29.77 in7.0 miNW (310°)6.9 mphOvercast
6:52 AM1.4 °F-9.4 °F61 %29.77 in7.0 miNW (310°)8.1 mph16.1 mphOvercast
7:12 AM1.4 °F-9.4 °F61 %29.78 in10.0 miCalmOvercast
7:32 AM1.4 °F-9.4 °F61 %29.79 in10.0 miNW (310°)4.6 mphOvercast
7:52 AM1.4 °F-9.4 °F61 %29.80 in4.0 miNW (310°)10.4 mphHaze
8:12 AM1.4 °F-11.2 °F56 %29.82 in3.0 miWNW (300°)11.5 mph18.4 mphHaze
8:32 AM1.4 °F-11.2 °F56 %29.83 in7.0 miWNW (300°)8.1 mphOvercast
8:51 AM-0.4 °F-13.0 °F55 %29.84 in7.0 miNW (320°)6.9 mphOvercast
9:17 AM-0.4 °F-13.0 °F55 %29.85 in10.0 miCalmScattered Clouds
9:32 AM1.4 °F-13.0 °F51 %29.86 in10.0 miNW (310°)11.5 mph16.1 mphMostly Cloudy
9:52 AM1.4 °F-13.0 °F51 %29.87 in10.0 miNW (320°)13.8 mph19.6 mphScattered Clouds
10:11 AM1.4 °F-13.0 °F51 %29.88 in10.0 miNW (320°)10.4 mph16.1 mphScattered Clouds
10:32 AM1.4 °F-13.0 °F51 %29.89 in10.0 miCalmScattered Clouds
10:52 AM3.2 °F-13.0 °F47 %29.90 in10.0 miCalmScattered Clouds
11:12 AM3.2 °F-13.0 °F47 %29.90 in7.0 miWNW (300°)11.5 mph18.4 mphMostly Cloudy
11:32 AM5.0 °F-13.0 °F43 %29.91 in5.0 miNW (310°)13.8 mph19.6 mphHaze
11:52 AM3.2 °F-13.0 °F47 %29.92 in4.0 miNNW (330°)10.4 mph20.7 mphHaze
12:12 PM5.0 °F-13.0 °F43 %29.92 in7.0 miNW (320°)10.4 mph19.6 mphMostly Cloudy
12:31 PM5.0 °F-13.0 °F43 %29.93 in4.0 miNW (320°)12.7 mph19.6 mphHaze
12:52 PM5.0 °F-13.0 °F43 %29.93 in4.0 miNW (320°)9.2 mph19.6 mphHaze
1:12 PM5.0 °F-13.0 °F43 %29.93 in5.0 miNW (320°)13.8 mph20.7 mphHaze
1:32 PM5.0 °F-13.0 °F43 %29.94 in7.0 miWNW (290°)12.7 mph18.4 mphOvercast
1:52 PM5.0 °F-13.0 °F43 %29.94 in10.0 miNW (310°)5.8 mph19.6 mphMostly Cloudy
2:12 PM5.0 °F-13.0 °F43 %29.95 in10.0 miWNW (290°)9.2 mph19.6 mphScattered Clouds
2:31 PM5.0 °F-13.0 °F43 %29.95 in10.0 miNNW (330°)16.1 mph20.7 mphScattered Clouds
2:52 PM5.0 °F-13.0 °F43 %29.96 in10.0 miWNW (300°)12.7 mph20.7 mphOvercast
3:12 PM5.0 °F-13.0 °F43 %29.97 in10.0 miWNW (300°)10.4 mph18.4 mphOvercast
3:32 PM5.0 °F-13.0 °F43 %29.98 in10.0 miWNW (300°)12.7 mph19.6 mphScattered Clouds
3:52 PM5.0 °F-13.0 °F43 %29.99 in10.0 miNW (310°)10.4 mph18.4 mphMostly Cloudy
4:11 PM5.0 °F-13.0 °F43 %29.99 in10.0 miCalmScattered Clouds
4:32 PM3.2 °F-14.8 °F43 %30.01 in10.0 miNW (310°)16.1 mph21.9 mphScattered Clouds
4:51 PM3.2 °F-14.8 °F43 %30.01 in10.0 miWNW (300°)10.4 mph17.3 mphScattered Clouds
5:12 PM3.2 °F-14.8 °F43 %30.02 in10.0 miNW (320°)12.7 mph18.4 mphMostly Cloudy
5:32 PM1.4 °F-14.8 °F47 %30.03 in10.0 miCalmScattered Clouds
5:52 PM1.4 °F-13.0 °F51 %30.04 in10.0 miWNW (300°)12.7 mph17.3 mphMostly Cloudy
6:11 PM1.4 °F-14.8 °F47 %30.05 in10.0 miWNW (300°)8.1 mphOvercast
6:32 PM-0.4 °F-14.8 °F51 %30.05 in10.0 miNW (310°)4.6 mph9.2 mphScattered Clouds
6:52 PM-0.4 °F-14.8 °F51 %30.06 in10.0 miWNW (290°)12.7 mph19.6 mphScattered Clouds
7:12 PM-0.4 °F-14.8 °F51 %30.07 in10.0 miWNW (290°)8.1 mph16.1 mphScattered Clouds
7:32 PM-2.2 °F-16.6 °F50 %30.08 in10.0 miNW (310°)9.2 mph16.1 mphScattered Clouds
7:52 PM-4.0 °F-16.6 °F55 %30.09 in10.0 miNW (310°)8.1 mphClear
8:12 PM-4.0 °F-18.4 °F50 %30.09 in10.0 miNW (310°)10.4 mphClear
8:32 PM-5.8 °F-18.4 °F55 %30.10 in10.0 miNW (320°)12.7 mph19.6 mphClear
8:52 PM-5.8 °F-18.4 °F55 %30.11 in10.0 miWNW (290°)6.9 mphClear
9:12 PM-5.8 °F-20.2 °F50 %30.11 in10.0 miWNW (290°)8.1 mphScattered Clouds
9:32 PM-7.6 °F-22.0 °F50 %30.13 in10.0 miWNW (290°)6.9 mphClear
9:52 PM-7.6 °F-22.0 °F50 %30.13 in10.0 miWNW (300°)9.2 mphScattered Clouds
10:12 PM-7.6 °F-23.8 °F45 %30.13 in10.0 miWNW (300°)5.8 mphScattered Clouds
10:32 PM-9.4 °F-23.8 °F49 %30.13 in10.0 miNW (320°)5.8 mphScattered Clouds
10:52 PM-9.4 °F-23.8 °F49 %30.14 in10.0 miNW (310°)9.2 mphScattered Clouds
11:12 PM-9.4 °F-25.6 °F45 %30.14 in10.0 miCalmScattered Clouds
11:32 PM-11.2 °F-25.6 °F49 %30.15 in10.0 miNW (310°)6.9 mphScattered Clouds
11:52 PM-11.2 °F-25.6 °F49 %30.16 in10.0 miWNW (300°)9.2 mphClear
Hourly data recorded from KMZH, located miles away from Moose Lake, Minnesota







STORIES FROM OUR PARTNERS